Temp
35 35 35 36 35 35 33 33 33 33 32 33 32 32 32 32 32 32 32 32 31 32 32 32 32 32 32 32 32 31 30 29 29 29 29 30 30 30 30 30 30 31 31 32 32 33 34 35 35 35 35 35 34 35 35 36 37 38 37 37 37 38
34 35 34 33 34 33 32 32 32 32 32 32 32 32 31 31 30 31 30 31 30 30 31 31 31 31 31 30 30 29 28 28 28 28 28 28 29 29 29 29 29 29 29 30 31 31 32 33 33 34 34 34 33 33 33 35 37 36 36 35 37 38
34 33 33 32 31 31 31 30 31 30 31 30 31 30 30 29 30 30 29 30 29 29 29 29 29 29 30 29 29 28 28 27 28 27 27 27 27 28 27 27 27 28 28 28 29 30 30 30 31 32 33 32 32 33 33 34 35 34 34 35 36 37
33 33 31 30 29 29 29 30 29 29 29 29 29 29 28 28 28 28 28 28 28 28 28 28 28 28 28 28 28 26 26 26 26 26 26 25 26 27 26 26 27 27 27 27 28 28 28 29 29 30 31 30 30 30 33 33 34 33 33 34 34 36
29 29 29 28 28 28 28 27 28 28 28 28 27 27 26 27 26 26 26 26 26 26 26 26 26 26 26 26 26 25 25 25 25 26 25 25 25 26 26 26 26 26 26 26 27 27 27 27 28 29 29 29 29 29 31 32 32 32 32 33 34 34
28 28 27 28 27 27 27 27 27 28 27 26 26 25 25 25 25 25 24 24 25 24 24 24 24 24 24 24 24 24 24 24 24 25 24 24 25 24 25 25 25 25 25 25 25 25 25 26 27 27 28 28 28 29 30 30 31 32 33 33 33 34
28 27 27 26 26 26 26 26 26 26 26 25 25 25 25 25 24 24 24 23 23 24 23 23 24 23 24 23 23 23 24 23 23 24 24 23 23 24 24 24 25 24 24 24 24 24 24 25 25 26 26 27 28 28 29 29 31 32 32 33 33 34
28 27 26 26 26 26 26 26 25 25 24 24 25 24 24 24 24 23 23 23 23 22 23 23 23 23 23 23 23 23 23 23 23 23 23 23 22 23 23 23 23 24 23 23 23 24 24 24 25 25 25 26 27 28 29 30 31 31 32 32 33 33
27 27 26 25 25 25 25 24 25 24 23 23 24 24 24 24 23 23 22 22 22 22 22 22 22 23 22 22 22 23 23 22 22 22 22 23 22 22 22 22 22 23 23 23 23 23 23 24 24 24 24 25 26 28 29 29 30 30 31 31 32 33
26 25 25 25 25 24 24 24 24 24 23 23 23 23 23 24 22 22 22 22 22 22 22 22 22 22 22 22 22 22 22 22 22 22 22 22 21 22 22 21 22 22 22 22 23 23 23 23 23 23 24 25 27 28 29 29 29 29 30 30 32 33
25 25 25 25 23 24 24 24 24 23 23 23 23 22 22 22 22 22 22 22 22 21 21 22 22 22 22 22 22 22 21 21 21 21 21 21 21 22 21 22 21 21 21 22 22 22 23 23 23 24 25 26 27 29 28 28 28 28 29 30 31 32
25 25 25 23 24 23 23 23 23 22 22 23 22 22 22 22 22 21 22 22 22 21 21 22 21 22 22 21 21 21 21 20 20 20 20 21 21 21 21 21 21 21 20 20 21 21 22 22 23 25 28 29 28 28 27 28 28 28 29 29 29 30
25 24 24 24 23 23 23 23 23 22 21 21 22 22 22 22 21 21 21 22 22 21 21 21 21 21 21 21 21 21 20 20 20 20 20 20 20 20 20 20 19 20 20 20 20 20 21 22 23 26 28 29 30 28 27 27 27 28 29 29 29 28
24 23 24 23 23 23 22 22 22 21 21 21 22 22 22 22 21 21 21 21 21 21 21 20 20 20 20 20 20 20 20 19 19 19 19 19 19 19 19 18 19 19 19 20 19 19 20 20 24 26 28 28 29 29 27 27 27 27 28 28 28 28
24 24 24 23 23 23 23 23 22 22 22 20 21 21 22 21 21 20 21 21 21 20 20 20 19 20 19 19 19 19 19 18 18 18 18 17 18 18 17 18 18 18 18 19 18 18 19 20 23 26 27 28 28 29 28 27 27 26 26 27 28 26
24 24 24 24 24 24 23 23 23 22 22 22 21 20 21 21 20 20 20 21 20 20 20 19 19 19 19 19 19 18 18 17 17 17 17 17 17 17 16 17 17 17 17 18 18 18 19 19 22 25 26 27 27 28 28 26 25 25 26 27 27 26
25 24 23 23 24 23 22 22 22 22 21 21 21 20 20 20 19 20 20 20 20 20 19 19 19 18 19 18 18 17 17 17 16 16 16 16 15 15 15 15 15 16 16 17 17 17 17 19 23 25 25 26 27 28 27 25 25 25 26 27 27 26
25 24 24 25 25 23 23 23 22 21 21 21 21 20 20 20 19 19 20 19 19 19 19 19 18 18 18 18 17 16 16 15 15 14 15 14 14 15 15 15 15 15 15 16 16 16 16 18 23 24 25 26 26 27 24 24 24 24 25 26 26 25
25 25 25 24 24 23 23 22 22 22 21 20 20 20 20 20 19 19 19 19 19 19 19 18 18 17 17 16 16 15 14 14 13 14 14 13 13 13 13 14 14 15 15 15 15 15 15 17 20 23 24 25 26 25 22 23 23 24 24 24 24 24
25 24 25 24 23 23 23 22 22 21 21 20 20 19 19 19 19 19 18 18 18 18 18 18 17 16 16 15 14 14 13 13 13 13 13 12 12 12 13 13 13 14 15 14 14 15 15 16 20 22 23 24 25 24 21 22 22 22 23 23 23 23
25 24 23 23 22 22 22 22 21 21 20 20 19 19 19 19 19 19 18 18 18 17 18 17 17 16 15 14 13 13 12 11 11 11 11 12 12 11 12 12 12 12 13 14 14 15 15 16 18 21 22 23 24 23 21 21 21 20 21 21 21 22
22 22 23 22 23 22 22 22 21 20 20 19 19 18 18 19 19 19 18 17 17 17 17 16 15 15 13 12 12 11 11 11 9 10 10 10 10 9 10 11 11 11 12 14 14 15 15 15 16 18 22 23 23 24 21 20 19 19 20 20 20 19
24 24 24 24 23 22 21 21 20 19 18 18 18 17 18 19 17 17 17 16 16 15 15 15 14 12 11 11 10 10 8 9 9 8 8 8 8 8 8 9 10 10 11 12 12 13 13 14 15 17 21 22 23 23 22 19 20 19 19 18 19 20
23 23 23 22 22 22 21 21 19 18 17 17 17 18 18 18 16 15 14 13 13 13 12 12 11 11 10 8 9 7 7 8 7 7 7 6 6 6 6 7 8 9 10 10 11 11 12 14 15 16 19 21 22 23 23 20 20 21 19 18 18 20
22 22 23 21 21 21 21 19 17 17 16 16 18 18 16 15 15 14 13 12 12 11 10 10 8 7 9 5 5 5 4 5 4 4 5 5 4 4 4 5 6 7 7 8 9 11 12 13 14 17 17 19 21 22 23 23 22 23 21 19 18 19
22 22 21 20 19 19 19 18 17 16 15 16 17 16 14 14 13 12 11 10 10 10 8 6 4 4 3 3 3 3 2 2 2 3 3 3 3 2 2 4 4 5 5 6 7 9 11 13 14 16 17 18 21 22 22 22 23 23 20 20 19 20
21 21 19 18 18 18 17 17 16 12 13 15 15 15 14 13 11 9 6 7 7 4 3 3 2 1 0 1 1 -0 1 0 0 0 1 2 2 2 1 2 2 2 4 5 6 8 10 12 13 14 16 18 19 21 21 21 22 23 23 19 19 20
21 19 19 16 16 17 15 15 16 12 14 14 14 13 12 9 5 4 4 3 2 2 0 -2 -1 -2 -1 -1 -1 -3 -2 -2 -2 -2 -0 0 -0 -0 -1 -0 1 2 3 5 6 8 10 11 12 13 15 16 17 17 19 20 21 21 21 21 20 22
18 17 16 16 14 14 14 10 12 14 13 12 12 11 8 3 3 3 2 2 1 -1 -2 -2 -3 -1 -1 -3 -1 -1 -1 -0 -1 -1 -1 -2 -2 -2 -1 -0 1 2 4 5 7 8 9 10 11 12 13 14 14 14 15 17 17 19 19 18 17 18
18 17 15 16 15 14 13 11 11 9 9 8 8 4 3 3 2 3 2 1 -1 -2 -2 -3 1 1 -2 -2 -4 -3 -2 -2 -2 -3 -3 -3 -2 -2 -1 2 3 4 6 6 7 7 8 9 10 11 11 12 13 14 16 16 16 15 15 15 16 16
16 16 15 16 15 12 11 9 8 6 7 7 3 1 1 3 1 2 -1 -2 -3 -3 -3 -4 -4 -3 -3 -3 -4 -3 -1 -3 -3 -3 -1 2 2 2 3 4 7 8 8 8 8 8 8 8 9 10 15 15 18 16 14 14 14 15 15 17 20 13
16 15 14 15 12 10 9 7 6 5 6 3 1 1 1 0 1 -2 -1 -2 -5 -5 -6 -6 -5 -5 -4 -5 -5 -5 -4 3 6 6 4 4 9 12 15 14 9 10 11 10 11 11 9 8 10 16 18 18 18 19 19 19 19 20 17 17 18 10
13 12 11 12 9 8 7 6 6 4 3 3 2 2 2 -1 -2 -1 -2 -5 -6 -5 -5 -7 -8 -8 -9 -7 -6 -7 -5 -5 -2 7 11 11 10 10 13 14 15 16 16 13 10 12 16 16 16 16 16 17 17 18 18 18 18 18 16 17 11 3
10 11 11 10 8 7 5 5 3 3 1 0 0 -0 -0 -1 -1 -3 -2 -4 -6 -4 -3 -5 -5 -6 -7 -6 -6 -6 -6 -6 -6 -4 4 7 7 10 12 13 14 15 15 15 14 11 9 12 14 15 16 16 16 16 17 17 17 15 15 14 11 -2
13 12 11 8 6 4 4 3 3 2 -1 -1 -2 -3 -4 -5 -6 -4 -4 -5 -5 -5 -3 -5 -6 -6 -7 -8 -7 -6 -7 -6 -6 -6 -6 -1 5 7 10 11 12 12 13 13 13 13 12 12 13 14 15 15 15 16 15 16 15 13 14 11 1 -6
11 10 8 6 4 5 3 2 2 1 -0 -3 -3 -4 -5 -5 -5 -5 -5 -6 -5 -6 -6 -5 -6 -6 -7 -6 -6 -6 -5 -6 -6 -7 -6 -6 -5 -3 1 6 8 9 9 10 11 11 11 12 12 12 13 14 14 14 15 14 8 10 10 6 -3 -6
8 7 7 6 4 3 2 2 1 -1 -3 -5 -3 -8 -9 -9 -5 -7 -4 -1 -1 -6 -5 -6 -4 -5 -7 -7 -7 -7 -6 -7 -6 -5 -5 -6 -6 -6 -6 -6 -4 1 4 3 4 7 10 10 10 11 12 12 12 13 13 10 -1 -4 -5 -4 -9 -7
7 6 5 5 4 3 1 2 0 -1 -6 -8 -11 -11 -9 -8 -7 -6 -5 -5 -4 -5 -5 -5 -7 -6 -7 -8 -8 -7 -6 -5 -4 -5 -5 -5 -5 -6 -7 -6 -5 -5 -1 2 3 4 6 8 9 9 10 10 11 11 11 -2 -7 -8 -7 -7 -6 -7
MSLP
1034.17 1034.25 1034.37 1034.41 1034.37 1034.37 1034.41 1034.45 1034.41 1034.49 1034.49 1034.61 1034.77 1034.85 1034.93 1035.01 1035.01 1034.93 1034.89 1034.77 1034.69 1034.61 1034.49 1034.41 1034.33 1034.25 1034.17 1034.05 1033.89 1033.93 1033.81 1033.69 1033.57 1033.45 1033.21 1032.93 1032.65 1032.33 1032.05 1031.77 1031.37 1031.01 1030.69 1030.33 1029.93 1029.53 1029.17 1028.77 1028.45 1028.09 1027.81 1027.49 1027.17 1026.77 1026.37 1025.93 1025.37 1024.85 1024.53 1024.33 1024.05 1023.65
1034.25 1034.37 1034.41 1034.45 1034.41 1034.37 1034.45 1034.53 1034.61 1034.69 1034.77 1034.89 1034.97 1035.05 1035.13 1035.21 1035.21 1035.17 1035.09 1034.97 1034.89 1034.81 1034.73 1034.65 1034.61 1034.53 1034.41 1034.33 1034.21 1034.25 1034.17 1034.09 1033.93 1033.73 1033.45 1033.17 1032.93 1032.61 1032.33 1032.01 1031.69 1031.33 1030.97 1030.61 1030.25 1029.85 1029.45 1029.09 1028.73 1028.41 1028.05 1027.73 1027.49 1027.13 1026.69 1026.13 1025.61 1025.21 1024.93 1024.57 1024.21 1023.69
1034.33 1034.45 1034.49 1034.49 1034.45 1034.45 1034.53 1034.73 1034.85 1034.93 1035.01 1035.13 1035.21 1035.33 1035.37 1035.41 1035.41 1035.33 1035.29 1035.21 1035.09 1035.05 1034.97 1034.93 1034.85 1034.77 1034.69 1034.65 1034.49 1034.57 1034.41 1034.33 1034.17 1034.01 1033.77 1033.49 1033.17 1032.85 1032.61 1032.29 1031.97 1031.61 1031.29 1030.93 1030.57 1030.17 1029.81 1029.45 1029.05 1028.65 1028.29 1027.97 1027.69 1027.33 1026.85 1026.33 1025.93 1025.61 1025.29 1024.85 1024.33 1023.85
1034.21 1034.41 1034.49 1034.53 1034.49 1034.49 1034.65 1034.89 1035.01 1035.09 1035.21 1035.41 1035.45 1035.41 1035.61 1035.65 1035.69 1035.65 1035.53 1035.49 1035.41 1035.33 1035.25 1035.21 1035.13 1035.13 1035.05 1034.97 1034.81 1034.85 1034.65 1034.53 1034.41 1034.13 1033.89 1033.69 1033.37 1033.09 1032.85 1032.53 1032.21 1031.89 1031.57 1031.21 1030.81 1030.41 1030.05 1029.69 1029.25 1028.85 1028.45 1028.17 1027.81 1027.45 1027.01 1026.53 1026.17 1025.89 1025.49 1024.97 1024.49 1024.01
1034.13 1034.33 1034.49 1034.61 1034.65 1034.73 1034.93 1035.13 1035.29 1035.33 1035.41 1035.57 1035.69 1035.73 1035.85 1035.93 1035.93 1035.85 1035.77 1035.69 1035.57 1035.53 1035.45 1035.41 1035.37 1035.33 1035.25 1035.17 1035.01 1034.97 1034.81 1034.65 1034.49 1034.25 1034.09 1033.85 1033.53 1033.25 1033.05 1032.73 1032.45 1032.13 1031.81 1031.49 1031.09 1030.69 1030.33 1029.93 1029.53 1029.09 1028.73 1028.37 1028.01 1027.57 1027.13 1026.81 1026.45 1026.05 1025.53 1025.05 1024.61 1024.17
1034.25 1034.45 1034.57 1034.69 1034.73 1034.81 1035.05 1035.25 1035.33 1035.37 1035.57 1035.73 1035.81 1035.85 1035.93 1035.93 1035.97 1035.89 1035.81 1035.73 1035.65 1035.61 1035.57 1035.53 1035.49 1035.45 1035.33 1035.29 1035.17 1035.09 1034.93 1034.77 1034.57 1034.33 1034.17 1033.93 1033.69 1033.45 1033.13 1032.85 1032.57 1032.25 1031.97 1031.61 1031.25 1030.93 1030.53 1030.17 1029.77 1029.41 1029.01 1028.65 1028.25 1027.81 1027.37 1026.97 1026.57 1026.09 1025.61 1025.17 1024.69 1024.29
1034.17 1034.49 1034.69 1034.77 1034.81 1034.89 1035.09 1035.25 1035.33 1035.49 1035.65 1035.81 1035.89 1035.93 1035.93 1035.97 1036.01 1035.97 1035.85 1035.81 1035.73 1035.65 1035.65 1035.61 1035.53 1035.49 1035.41 1035.29 1035.21 1035.05 1034.89 1034.73 1034.57 1034.37 1034.21 1033.97 1033.73 1033.49 1033.17 1032.85 1032.57 1032.33 1032.05 1031.73 1031.45 1031.05 1030.69 1030.33 1029.89 1029.53 1029.13 1028.77 1028.37 1027.93 1027.53 1027.05 1026.53 1026.05 1025.65 1025.21 1024.77 1024.37
1034.17 1034.53 1034.69 1034.81 1034.77 1034.85 1035.13 1035.25 1035.37 1035.49 1035.73 1035.89 1035.97 1036.01 1036.01 1035.97 1036.01 1035.93 1035.85 1035.77 1035.73 1035.65 1035.65 1035.61 1035.53 1035.49 1035.41 1035.33 1035.21 1035.09 1034.97 1034.81 1034.61 1034.45 1034.21 1033.97 1033.77 1033.49 1033.21 1032.97 1032.73 1032.45 1032.21 1031.89 1031.57 1031.21 1030.85 1030.45 1030.09 1029.73 1029.37 1028.93 1028.45 1028.01 1027.49 1027.01 1026.49 1026.09 1025.69 1025.25 1024.81 1024.49
1034.13 1034.41 1034.65 1034.73 1034.73 1034.85 1035.05 1035.09 1035.25 1035.45 1035.65 1035.85 1035.97 1036.01 1035.97 1035.97 1035.93 1035.85 1035.77 1035.69 1035.61 1035.61 1035.61 1035.57 1035.57 1035.49 1035.49 1035.41 1035.29 1035.17 1035.01 1034.89 1034.73 1034.53 1034.33 1034.05 1033.89 1033.61 1033.29 1033.05 1032.81 1032.53 1032.25 1031.97 1031.57 1031.25 1030.89 1030.49 1030.09 1029.77 1029.37 1028.93 1028.45 1027.93 1027.37 1026.93 1026.49 1026.09 1025.69 1025.29 1024.93 1024.45
1034.17 1034.45 1034.49 1034.57 1034.57 1034.73 1034.93 1035.17 1035.25 1035.41 1035.57 1035.77 1035.89 1035.93 1035.89 1035.89 1035.81 1035.69 1035.69 1035.57 1035.57 1035.57 1035.57 1035.57 1035.53 1035.49 1035.49 1035.41 1035.29 1035.17 1035.05 1034.93 1034.81 1034.61 1034.37 1034.13 1033.93 1033.61 1033.41 1033.17 1032.89 1032.57 1032.29 1031.93 1031.57 1031.21 1030.85 1030.49 1030.05 1029.65 1029.25 1028.81 1028.29 1027.73 1027.25 1026.85 1026.45 1026.09 1025.69 1025.21 1024.69 1024.09
1033.85 1034.09 1034.21 1034.33 1034.53 1034.61 1034.89 1035.05 1035.21 1035.41 1035.61 1035.69 1035.77 1035.77 1035.73 1035.77 1035.69 1035.65 1035.61 1035.53 1035.53 1035.53 1035.57 1035.57 1035.53 1035.49 1035.49 1035.41 1035.29 1035.17 1035.05 1034.97 1034.81 1034.61 1034.37 1034.13 1033.89 1033.61 1033.37 1033.13 1032.81 1032.49 1032.13 1031.77 1031.49 1031.13 1030.73 1030.37 1030.01 1029.53 1029.13 1028.61 1028.05 1027.61 1027.17 1026.81 1026.41 1026.05 1025.53 1024.93 1024.33 1023.97
1033.53 1033.81 1034.01 1034.25 1034.37 1034.61 1034.77 1034.93 1035.05 1035.25 1035.33 1035.45 1035.65 1035.65 1035.69 1035.69 1035.65 1035.65 1035.57 1035.57 1035.53 1035.57 1035.61 1035.61 1035.61 1035.57 1035.53 1035.45 1035.33 1035.25 1035.13 1035.01 1034.81 1034.57 1034.33 1034.09 1033.81 1033.61 1033.33 1033.01 1032.73 1032.45 1032.09 1031.69 1031.29 1030.97 1030.65 1030.25 1029.85 1029.41 1028.97 1028.49 1028.01 1027.57 1027.17 1026.77 1026.33 1025.85 1025.29 1024.69 1024.17 1023.93
1033.37 1033.65 1033.89 1034.01 1034.25 1034.41 1034.53 1034.69 1034.93 1035.17 1035.29 1035.41 1035.53 1035.65 1035.65 1035.69 1035.65 1035.61 1035.65 1035.61 1035.57 1035.61 1035.65 1035.69 1035.69 1035.65 1035.57 1035.49 1035.41 1035.29 1035.17 1035.01 1034.81 1034.61 1034.33 1034.05 1033.81 1033.57 1033.25 1033.01 1032.69 1032.33 1032.01 1031.69 1031.29 1030.89 1030.57 1030.21 1029.81 1029.33 1028.77 1028.33 1027.89 1027.57 1027.17 1026.65 1026.17 1025.69 1025.13 1024.57 1024.21 1023.93
1033.17 1033.45 1033.65 1033.89 1034.13 1034.29 1034.45 1034.53 1034.77 1034.97 1035.09 1035.37 1035.53 1035.57 1035.65 1035.65 1035.65 1035.69 1035.65 1035.61 1035.61 1035.65 1035.77 1035.77 1035.77 1035.73 1035.65 1035.57 1035.45 1035.37 1035.25 1035.09 1034.85 1034.61 1034.33 1034.09 1033.81 1033.49 1033.25 1033.01 1032.65 1032.33 1032.01 1031.61 1031.25 1030.89 1030.53 1030.17 1029.69 1029.25 1028.73 1028.25 1027.85 1027.49 1027.05 1026.57 1026.05 1025.65 1025.13 1024.57 1024.21 1023.97
1032.73 1033.01 1033.33 1033.69 1033.97 1034.13 1034.17 1034.37 1034.61 1034.81 1035.05 1035.37 1035.45 1035.57 1035.61 1035.57 1035.65 1035.69 1035.69 1035.61 1035.65 1035.69 1035.81 1035.81 1035.81 1035.77 1035.69 1035.61 1035.49 1035.41 1035.29 1035.09 1034.89 1034.61 1034.37 1034.13 1033.89 1033.61 1033.33 1033.01 1032.69 1032.33 1031.97 1031.61 1031.21 1030.81 1030.37 1030.05 1029.61 1029.05 1028.61 1028.21 1027.81 1027.33 1026.89 1026.45 1026.09 1025.73 1025.25 1024.61 1024.25 1024.09
1032.73 1032.85 1033.05 1033.33 1033.57 1033.81 1033.97 1034.25 1034.41 1034.65 1035.01 1035.25 1035.41 1035.53 1035.53 1035.57 1035.61 1035.65 1035.65 1035.61 1035.65 1035.69 1035.77 1035.81 1035.81 1035.77 1035.65 1035.57 1035.49 1035.41 1035.25 1035.09 1034.89 1034.69 1034.45 1034.17 1033.93 1033.69 1033.33 1032.97 1032.69 1032.33 1031.97 1031.65 1031.25 1030.81 1030.33 1029.97 1029.53 1028.93 1028.53 1028.17 1027.69 1027.21 1026.73 1026.45 1026.13 1025.69 1025.13 1024.57 1024.21 1024.13
1032.29 1032.69 1033.05 1033.25 1033.45 1033.77 1034.01 1034.25 1034.45 1034.73 1035.09 1035.25 1035.29 1035.33 1035.41 1035.49 1035.61 1035.65 1035.61 1035.61 1035.61 1035.69 1035.77 1035.81 1035.81 1035.73 1035.61 1035.53 1035.49 1035.37 1035.25 1035.09 1034.93 1034.69 1034.45 1034.25 1034.05 1033.73 1033.41 1033.01 1032.65 1032.29 1031.93 1031.61 1031.21 1030.73 1030.25 1029.93 1029.45 1028.93 1028.53 1028.09 1027.61 1027.09 1026.73 1026.49 1026.13 1025.57 1024.97 1024.45 1024.13 1024.01
1031.93 1032.33 1032.65 1033.17 1033.41 1033.53 1033.77 1033.89 1034.33 1034.65 1034.77 1035.01 1035.05 1035.13 1035.25 1035.37 1035.49 1035.53 1035.49 1035.53 1035.57 1035.65 1035.73 1035.73 1035.77 1035.65 1035.53 1035.49 1035.45 1035.37 1035.25 1035.09 1034.97 1034.81 1034.49 1034.29 1034.01 1033.73 1033.37 1033.01 1032.69 1032.37 1031.97 1031.61 1031.25 1030.77 1030.21 1029.77 1029.41 1028.93 1028.45 1028.01 1027.61 1027.13 1026.81 1026.53 1026.05 1025.41 1024.77 1024.33 1024.17 1024.09
1031.73 1032.09 1032.53 1032.97 1033.13 1033.29 1033.49 1033.73 1034.09 1034.29 1034.49 1034.77 1034.85 1034.93 1035.09 1035.29 1035.41 1035.41 1035.37 1035.49 1035.53 1035.61 1035.69 1035.69 1035.69 1035.65 1035.57 1035.53 1035.49 1035.41 1035.33 1035.17 1035.01 1034.81 1034.61 1034.41 1034.09 1033.73 1033.41 1033.01 1032.69 1032.37 1032.01 1031.57 1031.25 1030.89 1030.29 1029.77 1029.37 1028.85 1028.41 1028.01 1027.61 1027.17 1026.89 1026.49 1025.93 1025.29 1024.73 1024.37 1024.21 1024.13
1031.65 1032.05 1032.29 1032.65 1032.89 1033.01 1033.17 1033.53 1033.81 1034.09 1034.29 1034.45 1034.61 1034.81 1035.01 1035.17 1035.25 1035.21 1035.29 1035.41 1035.49 1035.61 1035.65 1035.65 1035.61 1035.65 1035.61 1035.61 1035.57 1035.45 1035.41 1035.25 1035.09 1034.97 1034.85 1034.61 1034.17 1033.81 1033.49 1033.13 1032.69 1032.33 1032.01 1031.65 1031.25 1030.93 1030.45 1029.73 1029.25 1028.85 1028.41 1028.01 1027.61 1027.29 1027.01 1026.49 1025.89 1025.33 1024.85 1024.45 1024.29 1024.17
1031.25 1031.73 1032.25 1032.49 1032.65 1032.81 1033.05 1033.33 1033.61 1033.85 1034.05 1034.25 1034.45 1034.69 1034.93 1035.01 1035.01 1035.05 1035.17 1035.33 1035.41 1035.53 1035.53 1035.57 1035.61 1035.65 1035.65 1035.61 1035.61 1035.53 1035.49 1035.37 1035.29 1035.17 1034.93 1034.65 1034.37 1034.01 1033.57 1033.25 1032.81 1032.29 1031.93 1031.65 1031.25 1030.81 1030.41 1029.85 1029.33 1028.93 1028.45 1028.01 1027.61 1027.33 1027.01 1026.61 1026.05 1025.45 1024.89 1024.49 1024.21 1023.97
1031.65 1031.97 1032.05 1032.17 1032.21 1032.57 1032.89 1033.17 1033.45 1033.65 1033.89 1034.13 1034.37 1034.61 1034.69 1034.73 1034.73 1034.81 1035.05 1035.17 1035.33 1035.41 1035.45 1035.49 1035.57 1035.57 1035.65 1035.69 1035.65 1035.61 1035.57 1035.45 1035.41 1035.17 1034.93 1034.69 1034.37 1034.09 1033.65 1033.25 1032.77 1032.29 1031.85 1031.49 1031.17 1030.77 1030.49 1030.05 1029.45 1029.01 1028.49 1028.01 1027.61 1027.29 1027.01 1026.65 1026.17 1025.57 1024.97 1024.61 1024.33 1023.85
1031.05 1031.17 1031.45 1031.73 1032.09 1032.45 1032.73 1033.01 1033.21 1033.49 1033.77 1034.01 1034.29 1034.29 1034.33 1034.41 1034.53 1034.77 1034.93 1035.09 1035.25 1035.33 1035.41 1035.49 1035.53 1035.65 1035.69 1035.73 1035.69 1035.65 1035.61 1035.53 1035.37 1035.13 1034.89 1034.61 1034.29 1034.01 1033.61 1033.17 1032.69 1032.21 1031.77 1031.41 1031.17 1030.85 1030.53 1030.09 1029.53 1028.97 1028.49 1028.01 1027.57 1027.21 1026.89 1026.53 1026.13 1025.77 1025.25 1024.65 1024.13 1023.65
1030.97 1031.17 1031.49 1031.73 1031.93 1032.17 1032.45 1032.69 1033.01 1033.33 1033.61 1033.89 1033.93 1033.89 1034.05 1034.21 1034.41 1034.65 1034.85 1035.05 1035.21 1035.29 1035.37 1035.45 1035.53 1035.61 1035.69 1035.65 1035.69 1035.73 1035.57 1035.45 1035.33 1035.13 1034.81 1034.53 1034.25 1033.97 1033.57 1033.17 1032.69 1032.17 1031.69 1031.37 1031.13 1030.89 1030.45 1029.97 1029.57 1029.01 1028.45 1027.97 1027.53 1027.13 1026.69 1026.29 1026.01 1025.65 1025.09 1024.37 1023.77 1023.25
1030.69 1030.85 1030.97 1031.53 1031.69 1031.93 1032.17 1032.49 1032.81 1033.13 1033.37 1033.57 1033.45 1033.65 1033.89 1034.09 1034.37 1034.57 1034.77 1034.93 1035.05 1035.17 1035.25 1035.37 1035.45 1035.61 1035.61 1035.65 1035.65 1035.61 1035.53 1035.29 1035.21 1035.01 1034.77 1034.49 1034.21 1033.93 1033.61 1033.17 1032.69 1032.25 1031.81 1031.41 1031.05 1030.69 1030.29 1029.81 1029.29 1028.89 1028.41 1027.97 1027.49 1026.93 1026.41 1026.17 1025.85 1025.33 1024.81 1024.25 1023.53 1023.05
1030.21 1030.49 1030.85 1031.29 1031.53 1031.73 1032.05 1032.29 1032.61 1032.89 1033.13 1033.13 1033.33 1033.61 1033.85 1034.13 1034.33 1034.53 1034.69 1034.81 1034.97 1035.05 1035.21 1035.33 1035.45 1035.53 1035.57 1035.61 1035.53 1035.49 1035.37 1035.25 1035.09 1034.89 1034.65 1034.45 1034.21 1033.93 1033.61 1033.21 1032.81 1032.45 1032.05 1031.53 1030.97 1030.53 1030.09 1029.61 1029.13 1028.69 1028.33 1027.81 1027.21 1026.73 1026.37 1026.05 1025.65 1025.09 1024.49 1023.89 1023.49 1023.01
1029.61 1030.05 1030.57 1031.13 1031.33 1031.61 1031.85 1032.09 1032.29 1032.65 1032.85 1033.01 1033.29 1033.53 1033.77 1034.01 1034.25 1034.41 1034.53 1034.69 1034.85 1035.01 1035.17 1035.37 1035.49 1035.53 1035.53 1035.45 1035.41 1035.37 1035.21 1035.09 1034.93 1034.81 1034.53 1034.37 1034.17 1033.93 1033.69 1033.29 1032.97 1032.61 1032.05 1031.49 1030.97 1030.33 1029.81 1029.37 1029.01 1028.53 1028.01 1027.57 1027.13 1026.65 1026.29 1025.93 1025.33 1024.73 1024.21 1023.85 1023.37 1023.01
1029.45 1029.77 1030.09 1030.93 1031.29 1031.41 1031.65 1031.89 1032.09 1032.29 1032.49 1032.89 1033.17 1033.41 1033.65 1033.89 1034.13 1034.25 1034.37 1034.57 1034.77 1034.93 1035.13 1035.25 1035.33 1035.37 1035.33 1035.25 1035.21 1035.13 1035.01 1034.93 1034.89 1034.77 1034.49 1034.29 1034.09 1033.93 1033.73 1033.37 1032.93 1032.41 1031.85 1031.29 1030.65 1030.05 1029.61 1029.21 1028.77 1028.21 1027.77 1027.37 1026.93 1026.69 1026.25 1025.61 1025.05 1024.61 1024.13 1023.65 1023.17 1022.65
1029.41 1029.65 1029.97 1030.25 1031.09 1031.25 1031.41 1031.61 1031.93 1032.05 1032.37 1032.73 1033.05 1033.33 1033.53 1033.77 1033.93 1034.09 1034.25 1034.41 1034.61 1034.81 1035.05 1035.09 1035.13 1035.13 1035.05 1035.01 1034.93 1034.89 1034.81 1034.77 1034.73 1034.65 1034.41 1034.17 1034.05 1033.81 1033.53 1033.09 1032.57 1032.01 1031.41 1030.77 1030.17 1029.69 1029.33 1028.85 1028.41 1027.97 1027.49 1027.17 1026.89 1026.33 1025.65 1025.13 1024.69 1024.25 1023.85 1023.49 1023.05 1022.53
1028.85 1029.17 1029.65 1029.85 1030.53 1031.01 1031.17 1031.45 1031.73 1032.01 1032.33 1032.65 1032.97 1033.21 1033.45 1033.61 1033.77 1033.89 1033.97 1034.21 1034.45 1034.69 1034.85 1034.97 1034.97 1034.97 1034.93 1034.85 1034.81 1034.77 1034.73 1034.65 1034.53 1034.49 1034.29 1034.09 1033.85 1033.65 1033.13 1032.61 1032.05 1031.49 1030.85 1030.33 1029.81 1029.33 1028.73 1028.33 1028.05 1027.69 1027.37 1027.01 1026.41 1025.69 1025.21 1024.81 1024.37 1024.01 1023.65 1023.17 1022.73 1022.25
1028.61 1028.73 1029.17 1029.37 1030.13 1030.65 1030.93 1031.21 1031.57 1031.97 1032.21 1032.45 1032.81 1033.13 1033.33 1033.45 1033.61 1033.73 1033.85 1034.09 1034.41 1034.53 1034.73 1034.77 1034.81 1034.85 1034.81 1034.73 1034.69 1034.61 1034.49 1034.49 1034.41 1034.17 1033.85 1033.41 1033.25 1033.05 1032.65 1031.93 1031.13 1030.69 1030.37 1030.05 1029.49 1028.89 1028.37 1028.09 1027.89 1027.61 1027.17 1026.49 1025.93 1025.49 1024.93 1024.49 1024.13 1023.73 1023.29 1022.81 1022.25 1022.53
1027.85 1028.37 1028.81 1029.21 1029.97 1030.29 1030.57 1030.97 1031.41 1031.85 1032.09 1032.37 1032.65 1032.97 1033.13 1033.25 1033.45 1033.61 1033.69 1033.97 1034.17 1034.37 1034.53 1034.65 1034.65 1034.69 1034.65 1034.57 1034.53 1034.45 1034.33 1033.97 1033.69 1033.37 1033.05 1032.61 1032.25 1031.93 1031.49 1031.13 1030.73 1030.21 1029.81 1029.33 1028.89 1028.81 1028.45 1027.93 1027.45 1026.97 1026.53 1026.17 1025.73 1025.17 1024.73 1024.29 1023.81 1023.33 1023.05 1022.73 1022.45 1023.05
1028.05 1028.33 1028.65 1029.17 1029.89 1030.09 1030.41 1030.73 1031.25 1031.65 1031.97 1032.21 1032.45 1032.73 1032.89 1033.13 1033.33 1033.45 1033.57 1033.85 1033.97 1034.13 1034.29 1034.41 1034.45 1034.49 1034.45 1034.41 1034.37 1034.33 1034.13 1033.85 1033.53 1033.09 1032.53 1032.09 1031.81 1031.65 1031.29 1030.77 1030.29 1029.81 1029.49 1029.21 1028.73 1028.33 1028.17 1027.77 1027.29 1026.93 1026.49 1025.93 1025.49 1025.01 1024.57 1024.17 1023.73 1023.37 1023.17 1022.89 1023.01 1023.69
1028.21 1028.29 1028.17 1029.09 1029.65 1029.85 1030.29 1030.61 1031.13 1031.49 1031.77 1032.05 1032.33 1032.57 1032.77 1032.97 1033.09 1033.21 1033.33 1033.61 1033.77 1034.01 1034.13 1034.17 1034.21 1034.17 1034.17 1034.13 1034.13 1034.05 1033.97 1033.77 1033.33 1032.85 1032.57 1032.21 1031.85 1031.53 1031.01 1030.57 1030.13 1029.69 1029.37 1029.05 1028.81 1028.45 1028.01 1027.77 1027.45 1026.93 1026.29 1025.77 1025.33 1024.97 1024.53 1024.13 1023.65 1023.61 1023.41 1023.45 1023.77 1024.53
1027.61 1028.01 1028.49 1029.01 1029.33 1029.73 1030.13 1030.41 1030.89 1031.41 1031.61 1031.89 1032.21 1032.41 1032.61 1032.77 1032.93 1033.01 1033.17 1033.45 1033.61 1033.77 1033.89 1033.93 1033.97 1033.93 1033.93 1033.93 1033.89 1033.81 1033.73 1033.53 1033.33 1032.81 1032.25 1032.01 1032.01 1031.53 1030.97 1030.53 1030.13 1029.81 1029.45 1029.13 1028.85 1028.61 1028.25 1027.69 1027.17 1026.73 1026.21 1025.81 1025.33 1024.93 1024.53 1024.05 1023.93 1023.97 1023.85 1024.01 1024.57 1024.89
1027.65 1028.09 1028.45 1028.77 1029.09 1029.45 1029.93 1030.21 1030.73 1031.21 1031.45 1031.77 1032.01 1032.25 1032.41 1032.57 1032.69 1032.81 1032.97 1033.17 1033.33 1033.53 1033.61 1033.65 1033.69 1033.65 1033.65 1033.65 1033.61 1033.57 1033.41 1033.29 1033.13 1032.93 1032.65 1032.05 1031.45 1031.21 1031.05 1030.85 1030.49 1030.09 1029.73 1029.41 1029.05 1028.65 1028.25 1027.73 1027.21 1026.77 1026.29 1025.77 1025.33 1024.85 1024.49 1024.09 1024.41 1024.41 1024.49 1024.69 1025.01 1024.93
1027.61 1028.09 1028.41 1028.61 1029.09 1029.49 1029.81 1029.97 1030.57 1031.13 1031.41 1031.65 1031.89 1032.09 1032.29 1032.41 1032.61 1032.81 1032.93 1033.05 1033.17 1033.25 1033.29 1033.37 1033.37 1033.37 1033.41 1033.41 1033.37 1033.33 1033.25 1033.13 1032.97 1032.73 1032.37 1032.05 1031.69 1031.21 1030.77 1030.61 1030.49 1030.29 1030.13 1029.61 1029.21 1028.81 1028.29 1027.77 1027.29 1026.81 1026.33 1025.85 1025.41 1024.97 1024.45 1024.45 1025.13 1025.17 1025.13 1025.01 1025.01 1024.85
1027.53 1027.89 1028.53 1028.81 1029.09 1029.37 1029.69 1029.89 1030.65 1031.05 1031.33 1031.61 1031.85 1032.01 1032.13 1032.25 1032.45 1032.65 1032.81 1032.89 1032.97 1033.05 1033.13 1033.13 1033.17 1033.21 1033.21 1033.25 1033.21 1033.17 1033.01 1032.81 1032.57 1032.33 1032.09 1031.89 1031.65 1031.29 1030.89 1030.41 1030.25 1030.13 1029.81 1029.57 1029.25 1028.97 1028.57 1028.05 1027.53 1026.93 1026.41 1026.01 1025.57 1025.17 1024.81 1025.37 1025.61 1025.57 1025.37 1025.13 1024.81 1024.73
Wind_Speed
4 4 5 4 4 4 4 4 5 5 5 5 6 7 6 7 7 7 7 7 6 6 8 8 8 9 8 9 8 9 10 11 11 10 10 10 11 11 12 12 12 11 12 12 12 11 12 12 12 12 11 11 11 12 10 11 12 12 12 10 10 10
4 4 4 4 4 4 4 4 4 5 5 5 5 5 5 6 8 7 7 7 7 7 6 7 6 7 7 8 8 9 9 9 9 10 11 12 10 10 11 11 12 13 13 12 12 12 12 12 12 12 12 11 10 11 12 12 13 14 13 12 11 10
5 4 4 4 3 3 4 4 4 4 4 5 5 6 5 7 8 8 7 6 7 7 7 7 6 8 7 8 8 9 8 8 9 9 9 9 10 10 11 11 11 11 11 12 12 12 12 13 13 11 10 10 12 11 13 13 13 14 13 13 14 12
5 4 4 3 4 4 4 4 4 4 4 4 5 6 6 7 7 6 6 5 5 5 5 5 4 6 6 7 6 8 7 8 8 8 8 9 9 9 10 11 10 10 11 11 11 12 12 12 12 12 10 11 12 11 10 12 14 14 14 13 13 13
4 5 4 4 4 3 3 3 3 4 4 5 4 5 4 4 4 3 3 4 4 4 4 4 4 5 5 6 6 7 7 8 8 8 8 9 8 9 9 10 10 11 11 11 11 11 11 12 12 11 12 12 12 12 12 14 15 15 14 14 14 14
4 4 4 4 3 4 3 3 4 4 4 4 4 4 3 3 3 3 3 3 4 4 3 4 4 5 5 6 5 6 6 7 6 7 7 8 8 9 9 9 9 10 10 10 11 11 11 11 11 11 11 11 11 11 13 13 14 14 14 14 15 14
5 5 4 4 3 3 3 3 3 3 3 4 3 3 2 2 3 3 3 2 3 3 3 4 4 5 6 7 6 7 7 7 7 7 7 8 8 8 8 9 8 9 10 10 11 12 11 12 12 12 11 10 10 11 12 13 13 13 13 14 14 14
5 4 4 3 3 3 3 3 3 3 3 3 2 2 1 1 2 2 2 3 3 3 3 4 5 5 6 7 6 7 7 7 8 8 8 8 9 9 8 9 9 9 10 10 10 10 11 11 11 11 11 11 11 11 11 12 13 13 14 13 13 14
6 5 4 3 3 3 3 3 3 2 3 2 1 1 1 1 2 2 3 3 3 2 3 4 4 4 5 5 6 6 6 7 8 8 9 8 8 9 9 9 10 9 9 10 10 10 11 11 10 10 10 10 10 12 13 13 13 13 12 12 13 14
6 5 5 4 3 3 3 2 2 2 3 2 1 1 2 2 3 3 3 3 3 2 3 3 3 4 5 5 5 5 6 7 7 7 7 7 8 8 9 10 10 9 9 9 9 10 10 10 10 10 9 10 12 13 14 14 13 14 13 14 13 13
6 6 5 4 3 4 2 2 1 2 2 1 1 2 3 2 3 3 3 3 3 3 3 3 3 3 5 6 5 6 7 7 8 7 7 7 8 7 8 9 9 10 10 10 10 10 10 9 9 8 9 12 14 13 14 14 14 14 14 14 13 9
7 6 5 4 5 4 3 2 1 2 2 1 1 2 3 3 3 3 4 4 3 3 3 3 4 5 5 6 6 6 7 8 8 8 8 8 8 8 9 9 9 9 10 11 11 10 9 9 8 13 22 20 14 14 13 13 13 13 13 13 10 10
7 6 5 5 5 5 3 3 2 3 2 1 1 1 2 2 3 3 3 4 3 2 3 3 4 5 6 6 6 6 8 8 8 8 8 8 9 9 9 9 10 10 10 11 11 11 10 9 9 21 22 22 23 16 14 14 14 14 13 12 11 12
7 7 7 6 5 5 4 3 3 3 2 1 0 0 1 1 2 3 3 4 3 2 2 3 4 5 6 6 6 7 7 8 8 8 8 9 10 10 9 10 10 10 10 10 10 11 10 10 15 21 21 22 22 21 15 13 13 12 12 12 12 10
9 8 7 5 6 5 4 4 4 4 4 2 2 1 0 1 2 3 3 4 3 1 1 2 3 4 5 5 5 6 7 7 8 9 9 10 9 9 10 10 11 11 10 10 11 12 11 10 17 21 22 22 23 23 20 13 13 12 13 13 12 10
6 7 7 7 6 6 5 5 5 5 4 3 2 2 0 1 2 2 3 3 2 1 1 2 3 5 5 5 5 6 7 7 8 8 8 8 8 9 10 10 11 10 10 10 11 11 11 10 15 21 22 22 23 23 20 13 13 12 13 13 11 8
8 7 6 6 6 4 4 4 4 4 3 4 3 2 1 1 2 3 3 3 2 1 2 2 3 5 5 5 6 6 7 8 8 9 8 8 9 9 10 10 11 11 11 11 11 11 11 10 19 21 22 22 23 23 20 12 12 12 13 12 10 9
10 9 8 6 5 5 5 6 5 5 4 4 3 2 2 2 2 3 3 2 1 2 2 3 4 5 5 5 6 7 8 7 8 9 9 8 9 8 9 9 8 10 11 11 11 12 13 11 19 21 22 22 22 23 14 12 13 13 13 12 11 11
8 8 6 6 6 6 6 5 5 4 3 3 3 2 2 2 2 3 2 2 2 2 2 3 4 5 5 6 6 7 7 8 9 8 8 9 9 9 9 10 10 9 10 12 12 12 13 13 17 21 22 22 22 18 12 13 12 13 13 12 13 12
5 5 8 7 7 6 5 5 5 4 3 3 3 2 3 2 4 3 2 2 2 2 2 3 3 4 5 5 6 6 7 7 7 7 7 9 10 10 10 11 11 10 10 12 12 12 14 14 17 21 21 21 21 18 13 12 13 13 13 13 14 12
8 8 6 7 7 6 5 5 5 4 4 3 3 4 4 4 4 3 2 2 2 2 2 2 2 4 4 5 5 5 7 7 7 7 7 7 8 10 10 10 11 11 10 10 12 16 15 14 16 20 20 21 20 16 12 12 12 13 13 13 14 14
6 6 7 8 8 6 7 6 5 5 4 4 4 4 5 5 4 3 2 2 2 2 2 2 3 3 4 5 6 5 6 6 7 7 7 8 7 8 9 9 10 12 11 11 11 11 12 14 14 15 21 20 20 20 13 11 12 13 14 14 13 14
10 11 11 9 7 6 6 6 5 5 4 4 4 7 6 4 3 3 2 2 1 2 2 2 2 3 4 4 5 5 5 6 7 8 8 8 7 7 8 10 10 11 12 10 10 11 12 11 14 14 20 20 20 21 18 11 12 13 14 14 13 14
8 7 6 5 8 7 6 6 6 5 5 4 7 7 4 3 3 3 2 2 2 2 2 2 2 2 4 3 4 5 6 6 6 7 7 7 7 8 9 9 9 10 11 10 10 9 11 12 15 14 17 20 21 21 22 13 13 15 14 15 13 14
9 10 9 7 7 6 6 7 6 5 4 6 7 4 3 3 3 3 2 2 2 2 2 2 2 3 4 3 3 4 6 5 5 6 6 7 7 8 8 9 9 10 11 10 9 9 10 11 11 16 15 19 21 22 20 22 19 23 17 13 14 15
8 8 6 6 6 7 7 8 7 5 6 8 4 2 3 3 3 2 2 2 2 2 2 2 2 3 3 4 4 4 5 6 5 5 5 6 6 7 8 7 7 8 10 11 11 10 10 10 11 14 19 18 21 21 22 23 25 25 16 14 12 15
10 8 6 6 8 7 7 6 7 5 7 4 3 3 4 4 3 3 3 3 3 3 2 2 3 3 4 4 4 4 5 5 5 6 6 5 6 6 7 8 7 8 9 11 11 11 11 10 11 12 15 20 21 22 22 25 27 25 24 16 12 13
8 7 8 7 7 7 6 6 7 7 6 3 3 4 4 3 3 3 4 4 3 4 2 3 4 4 4 5 4 4 4 4 5 5 7 5 6 6 7 8 7 8 9 10 10 11 12 12 12 12 12 13 14 16 24 27 25 24 24 22 18 24
8 9 9 9 7 7 6 6 6 6 4 4 4 4 3 3 4 4 4 4 4 3 2 3 4 4 4 3 4 3 4 4 4 5 6 6 6 6 7 8 8 8 9 10 10 11 12 12 11 11 11 9 12 13 13 14 13 18 19 14 11 14
11 11 10 10 9 8 7 6 6 5 4 4 3 3 3 4 4 5 5 5 4 3 3 4 4 5 5 4 4 4 5 4 4 5 6 7 7 7 8 8 8 8 9 9 10 11 10 9 8 7 8 10 11 10 10 10 10 9 8 10 11 9
11 11 10 10 7 7 6 6 5 4 5 4 4 4 4 5 4 5 5 4 3 4 3 3 4 4 4 5 4 4 5 5 6 6 7 7 6 7 8 8 8 10 9 10 9 8 10 10 10 9 15 17 21 19 15 11 9 9 9 14 20 9
12 10 10 9 6 7 6 6 4 4 4 4 3 4 4 5 4 5 5 4 4 4 3 4 4 4 4 4 5 5 6 8 12 10 8 7 11 16 19 17 12 12 10 10 9 8 11 10 12 22 27 26 26 26 27 25 25 24 18 17 21 10
8 7 8 8 6 6 6 5 4 4 4 4 3 4 4 4 5 5 6 4 4 4 4 4 5 5 4 5 5 5 6 7 7 12 17 17 16 17 19 20 22 23 22 15 12 13 21 23 25 25 25 27 26 26 26 25 25 23 19 21 13 8
8 9 11 7 7 7 5 5 4 5 4 4 4 4 5 5 5 6 6 5 4 4 4 4 4 4 4 4 4 5 5 6 8 8 9 13 15 17 19 20 21 22 21 22 19 16 12 17 22 25 26 26 26 25 26 25 24 19 21 20 16 7
11 9 7 6 7 5 5 5 4 4 4 4 4 4 4 5 5 6 5 4 4 4 5 4 4 4 4 4 5 5 4 6 6 9 10 7 10 16 18 19 19 20 21 22 22 22 20 21 23 25 25 25 25 25 23 25 19 18 21 19 9 5
7 7 7 6 6 6 5 5 4 4 4 4 4 4 5 5 6 5 5 4 4 4 4 4 4 4 4 4 4 4 5 5 6 8 8 10 10 7 9 12 16 19 21 21 21 21 22 22 23 23 24 25 24 25 24 21 13 20 19 14 6 6
7 6 7 8 6 5 5 6 4 4 4 4 4 4 4 5 5 4 5 6 5 4 5 4 4 4 4 4 4 5 6 6 7 7 8 8 9 10 11 9 7 9 14 15 16 20 22 22 23 23 24 24 24 24 24 18 10 11 9 8 5 5
7 7 6 6 5 5 5 6 3 4 4 4 4 4 5 5 4 4 3 4 4 5 4 4 4 4 4 5 5 5 6 6 6 8 8 8 8 9 10 10 8 7 8 17 18 19 19 21 22 23 24 23 23 22 21 10 8 8 8 8 7 6
Wind_Direction
101 103 90 74 64 55 61 66 60 52 53 57 60 51 52 46 36 27 23 21 17 14 13 12 19 13 12 7 7 10 4 2 1 355 352 349 349 348 349 346 346 345 345 344 342 341 341 340 340 340 340 340 338 337 333 330 328 332 334 336 330 327
114 108 97 79 61 50 48 61 60 54 52 59 58 52 49 46 34 27 22 18 16 11 10 12 18 11 10 8 5 9 2 359 359 351 351 349 344 346 346 344 345 345 344 343 342 340 340 340 339 338 337 337 339 336 333 330 333 335 335 331 329 327
124 114 105 88 62 52 51 62 69 60 56 62 61 52 44 42 30 23 17 10 8 8 7 5 10 9 8 8 3 9 355 357 357 349 348 342 343 345 343 342 341 341 340 338 339 338 338 338 336 335 334 336 335 334 332 330 333 333 330 327 326 327
116 104 86 71 61 39 44 52 65 52 54 66 55 48 40 39 22 16 7 3 1 359 3 3 6 10 2 7 354 4 350 352 353 343 346 343 338 344 339 339 339 338 337 336 334 336 335 334 333 332 334 334 332 330 335 332 332 329 325 324 325 327
125 112 100 91 77 63 56 60 74 61 61 64 58 56 38 54 22 4 357 354 355 356 359 5 5 9 1 4 354 358 351 350 346 345 345 339 338 338 338 336 335 336 334 332 332 333 333 332 332 332 333 331 329 328 331 331 329 325 322 323 324 325
123 107 100 89 74 59 62 74 70 58 65 75 64 53 42 36 15 2 359 356 353 355 9 6 3 9 0 2 353 351 345 346 340 339 342 334 334 335 332 333 332 333 333 331 331 331 328 328 327 327 327 326 325 324 327 326 325 322 321 321 321 321
125 131 132 120 106 81 72 83 86 77 76 81 62 44 31 37 5 359 346 352 356 356 21 9 8 8 1 357 352 347 345 345 342 339 340 333 333 332 329 329 333 332 332 332 330 327 328 326 325 325 325 325 320 322 323 321 320 321 319 318 318 321
142 135 137 133 126 114 103 104 107 83 95 93 90 54 21 356 9 345 360 351 12 1 17 9 6 6 358 352 348 344 343 341 342 339 335 336 334 331 330 330 331 331 326 325 323 320 320 320 320 320 320 318 319 318 317 320 321 320 319 318 319 321
144 147 147 149 137 121 118 116 93 99 104 94 68 56 33 359 17 352 7 359 9 13 13 6 5 358 353 347 339 337 340 341 339 337 334 333 331 328 329 330 328 326 325 321 319 320 319 318 316 316 315 314 314 317 321 322 320 318 317 315 314 310
155 153 158 147 125 109 118 134 144 132 130 111 55 29 20 5 14 358 7 1 0 14 359 359 350 355 348 339 335 337 337 337 335 332 327 326 327 326 327 325 323 320 319 316 316 316 315 314 313 313 313 314 319 323 322 321 321 318 314 311 305 300
162 159 156 153 140 140 159 158 136 119 115 124 59 37 6 4 8 358 360 351 355 348 345 349 351 353 348 341 338 339 340 338 332 328 326 325 323 323 322 319 319 320 318 317 318 316 316 315 314 312 318 321 323 324 323 321 319 316 312 308 301 304
164 165 161 168 161 165 173 172 159 137 137 78 53 23 355 16 357 0 348 348 336 336 344 352 353 348 347 341 340 338 336 333 331 327 326 326 322 322 322 321 321 319 318 320 318 318 318 317 315 317 321 325 325 325 324 320 316 314 311 307 309 319
167 164 168 174 173 177 181 185 172 149 151 123 53 17 345 14 351 349 339 326 321 323 343 360 346 346 342 336 331 333 335 332 329 325 323 323 324 323 323 322 320 320 321 318 317 317 316 315 315 319 323 324 327 328 323 321 317 315 311 309 312 315
169 174 180 181 183 182 183 186 173 158 163 175 149 265 317 4 347 331 314 304 309 313 353 353 341 340 332 329 330 330 329 326 324 323 322 322 324 324 321 320 319 318 318 317 315 314 314 313 316 320 322 325 327 327 324 320 319 317 313 311 311 315
180 182 181 180 182 183 196 177 166 180 181 169 211 212 309 325 311 302 297 301 308 307 347 333 332 323 320 319 322 323 321 321 319 320 323 323 320 319 318 317 318 317 318 317 317 316 315 313 317 320 324 327 327 326 326 321 320 317 311 309 311 321
179 182 181 182 187 185 186 178 177 184 176 179 186 177 210 255 289 284 285 292 295 268 312 319 319 318 314 317 322 322 321 320 320 318 316 315 317 317 314 313 315 314 316 318 316 313 311 312 316 322 324 326 325 326 327 324 320 312 307 308 312 320
177 178 181 185 183 186 167 185 174 158 174 176 184 190 183 234 252 273 275 279 274 285 307 313 310 311 312 317 322 321 320 320 318 320 320 322 320 318 317 317 317 316 316 316 314 310 310 312 318 322 323 324 326 327 330 323 318 311 308 309 314 324
180 182 188 185 174 180 177 188 176 166 185 175 177 191 191 225 258 269 275 271 292 304 306 310 309 309 313 317 320 320 316 318 321 321 322 319 312 308 306 305 306 311 313 313 316 316 313 313 319 320 322 325 326 327 328 322 316 311 309 313 323 327
178 183 172 173 180 180 193 184 169 175 168 177 198 176 212 231 253 262 253 254 287 300 305 307 304 305 311 316 314 314 318 318 319 319 322 318 312 314 313 313 314 312 313 314 315 316 312 312 317 319 321 324 325 327 326 322 315 311 313 316 321 322
173 171 170 176 186 192 184 171 171 174 183 197 195 199 230 230 250 243 230 250 264 289 297 298 299 304 309 310 310 313 314 314 313 314 320 316 316 316 315 314 312 310 310 311 312 314 313 311 315 318 319 321 323 326 324 319 317 314 314 314 315 316
176 178 173 174 187 201 179 171 174 179 203 203 207 213 226 235 241 227 228 248 259 276 290 296 304 306 307 309 311 316 314 315 316 310 306 306 307 308 312 312 308 307 307 307 308 312 313 311 314 316 317 319 321 324 322 321 316 314 312 314 315 314
150 167 183 191 201 180 178 175 175 192 205 214 208 218 229 234 228 211 212 225 243 264 289 307 310 307 318 316 314 311 308 309 306 304 306 302 302 304 308 307 306 305 304 306 310 314 315 310 309 313 315 316 318 320 320 317 317 316 316 315 312 311
179 187 194 199 184 172 175 170 173 204 207 210 211 227 231 227 199 198 206 214 239 278 298 309 307 313 312 307 302 302 300 299 301 304 302 303 305 304 304 307 308 306 304 305 307 310 310 307 309 310 314 315 316 317 317 313 316 318 312 309 306 306
192 198 201 191 176 171 167 163 183 204 207 212 226 232 228 193 190 186 196 212 244 262 277 277 289 302 295 294 296 300 295 292 292 293 298 302 305 307 307 308 307 309 308 306 308 303 305 307 308 311 311 313 314 314 313 315 316 313 309 305 303 303
195 203 200 184 176 167 167 162 189 205 210 222 234 230 204 184 178 193 203 231 253 270 276 279 291 299 300 296 291 289 291 293 294 293 297 300 304 306 305 306 309 311 311 309 307 308 306 307 307 309 311 312 311 310 314 317 316 313 309 304 302 309
198 204 194 176 176 170 168 168 191 203 211 230 226 199 180 179 192 188 220 243 256 271 274 278 286 285 290 289 290 285 285 292 294 296 295 301 303 304 304 304 307 308 309 309 309 307 307 307 309 311 310 309 311 315 316 316 315 312 307 308 311 308
200 201 192 184 178 179 174 174 184 199 214 220 173 204 192 197 190 208 244 246 256 259 257 271 273 279 283 281 279 287 290 295 301 304 301 302 301 300 301 302 304 303 304 307 307 307 308 311 310 308 307 311 313 313 317 315 312 313 316 313 303 302
198 192 199 196 189 183 180 180 176 192 213 172 181 192 187 189 200 235 245 248 249 254 257 275 276 272 275 277 268 258 269 280 293 295 295 296 293 294 295 296 298 296 297 297 299 305 309 309 307 304 309 308 310 316 309 310 314 315 311 310 309 308
194 203 202 201 199 191 187 182 185 191 179 179 184 183 186 198 216 240 252 254 256 256 248 263 281 287 281 275 277 275 272 279 284 286 287 287 288 290 289 290 293 294 294 293 298 301 301 304 306 307 305 312 310 296 296 307 303 306 312 310 304 303
196 203 201 209 197 191 187 182 183 181 175 183 182 178 183 214 227 241 252 252 246 252 244 260 273 283 290 280 276 284 292 285 272 273 276 278 283 288 288 288 282 281 291 299 298 292 290 298 301 297 309 305 293 298 306 303 302 304 299 305 302 313
199 203 199 211 187 183 184 185 181 175 178 187 178 170 192 221 235 244 255 252 247 253 251 255 270 274 280 284 276 262 255 264 271 268 271 262 244 249 261 270 280 291 291 281 283 291 302 302 303 305 304 305 312 312 311 312 309 308 305 310 319 353
195 197 202 208 178 181 185 187 183 182 183 178 180 171 194 222 237 248 255 248 244 254 257 265 267 267 273 275 281 283 281 267 275 276 272 273 280 285 290 293 292 292 294 297 291 296 301 305 304 307 311 312 312 313 315 316 317 318 322 334 340 14
197 195 201 198 178 185 185 185 181 181 192 177 180 173 204 212 234 247 252 245 245 244 246 253 263 264 263 265 271 275 282 294 284 284 287 289 292 294 293 294 297 300 301 303 306 306 304 304 308 310 310 311 313 316 318 319 319 324 342 343 349 17
191 194 204 189 181 185 183 188 191 189 193 183 186 189 198 209 217 238 246 232 242 241 251 253 256 268 270 273 268 271 281 285 295 293 276 283 292 294 297 299 301 302 305 306 308 309 311 309 308 309 310 312 314 317 318 320 321 344 351 347 2 356
195 196 187 175 179 179 184 190 204 186 187 187 186 183 200 212 211 233 246 238 241 244 250 262 264 265 258 270 275 280 277 283 290 296 304 287 283 292 297 300 302 304 307 309 310 310 309 310 311 312 313 313 315 316 319 318 337 354 349 352 355 332
179 180 178 179 180 181 183 201 204 187 195 188 188 188 200 214 219 225 230 236 239 246 255 249 254 258 261 255 262 266 274 273 276 286 288 300 307 293 281 284 295 303 307 307 308 311 312 312 314 314 314 314 316 317 318 322 352 345 346 344 333 315
170 177 181 178 176 180 191 213 207 191 184 183 187 196 212 222 226 228 237 241 241 239 245 245 251 256 262 264 267 271 277 279 280 276 284 291 296 301 302 304 294 290 293 301 307 308 310 314 314 315 315 316 316 318 318 338 0 340 333 332 318 302
173 178 174 174 177 185 200 228 194 173 176 183 184 191 212 215 222 231 246 250 246 251 252 252 250 251 250 258 265 265 268 273 279 284 286 286 285 287 294 294 289 286 292 298 299 301 306 309 313 314 315 315 317 318 327 345 334 325 315 312 308 302